Location: Nianha
(10.8000°N, 4.6333°W)
Time: 01:48:54
(UTC+00:00)

USA 267 - Pass Details

Date: 14 November 2019
Orbit: 1100 x 1107 km, 123.0° (Epoch: 19 January)

Event Time Altitude Azimuth Distance (km) Brightness Sun altitude
Rises 05:36:58 0° 24° (NNE) 3,915 6.2 -9.4°
Reaches altitude 10° 05:39:36 10° 17° (NNE) 2,958 5.5 -8.8°
Maximum altitude 05:45:37 41° 310° (NW) 1,554 3.7 -7.4°
Drops below altitude 10° 05:51:39 10° 242° (WSW) 2,961 5.1 -6.0°
Sets 05:54:18 0° 235° (SW) 3,919 5.8 -5.4°
